TimeCDT,TemperatureF,Dew PointF,Humidity,Sea Level PressureIn,VisibilityMPH,Wind Direction,Wind SpeedMPH,Gust SpeedMPH,PrecipitationIn,Events,Conditions,WindDirDegrees,DateUTC
12:13 AM,30.2,26.6,86,29.96,10.0,Calm,Calm,-,N/A,,Clear,0,2013-10-08 05:13:00
12:34 AM,28.4,26.6,93,29.97,10.0,Calm,Calm,-,N/A,,Clear,0,2013-10-08 05:34:00
12:53 AM,30.2,26.6,86,29.97,10.0,Calm,Calm,-,N/A,,Clear,0,2013-10-08 05:53:00
1:13 AM,30.2,28.4,93,29.97,10.0,Calm,Calm,-,N/A,,Clear,0,2013-10-08 06:13:00
1:34 AM,32.0,28.4,87,29.97,10.0,Calm,Calm,-,N/A,,Clear,0,2013-10-08 06:34:00
1:53 AM,30.2,28.4,93,29.97,10.0,Calm,Calm,-,N/A,,Clear,0,2013-10-08 06:53:00
2:13 AM,30.2,28.4,93,29.97,10.0,Calm,Calm,-,N/A,,Clear,0,2013-10-08 07:13:00
2:34 AM,32.0,30.2,93,29.97,10.0,Calm,Calm,-,N/A,,Clear,0,2013-10-08 07:34:00
2:53 AM,30.2,26.6,86,29.97,10.0,Calm,Calm,-,N/A,,Clear,0,2013-10-08 07:53:00
3:13 AM,30.2,28.4,93,29.97,10.0,Calm,Calm,-,N/A,,Clear,0,2013-10-08 08:13:00
3:34 AM,30.2,26.6,86,29.97,10.0,Calm,Calm,-,N/A,,Clear,0,2013-10-08 08:34:00
3:53 AM,30.2,28.4,93,29.97,10.0,Calm,Calm,-,N/A,,Clear,0,2013-10-08 08:53:00
4:13 AM,30.2,28.4,93,29.97,10.0,Calm,Calm,-,N/A,,Clear,0,2013-10-08 09:13:00
4:34 AM,30.2,28.4,93,29.96,10.0,Calm,Calm,-,N/A,,Clear,0,2013-10-08 09:34:00
4:53 AM,32.0,28.4,87,29.97,10.0,Calm,Calm,-,N/A,,Clear,0,2013-10-08 09:53:00
5:13 AM,33.8,30.2,87,29.97,10.0,Calm,Calm,-,N/A,,Clear,0,2013-10-08 10:13:00
5:34 AM,35.6,33.8,93,29.98,10.0,Calm,Calm,-,N/A,,Clear,0,2013-10-08 10:34:00
5:53 AM,30.2,28.4,93,29.98,10.0,Calm,Calm,-,N/A,,Clear,0,2013-10-08 10:53:00
6:14 AM,35.6,33.8,93,29.98,10.0,SE,3.5,-,N/A,,Clear,140,2013-10-08 11:14:00
6:33 AM,39.2,33.8,81,29.97,10.0,SE,3.5,-,N/A,,Clear,130,2013-10-08 11:33:00
6:53 AM,39.2,35.6,87,29.97,10.0,Calm,Calm,-,N/A,,Clear,0,2013-10-08 11:53:00
7:13 AM,41.0,35.6,81,29.98,10.0,SSE,3.5,-,N/A,,Clear,150,2013-10-08 12:13:00
7:34 AM,42.8,35.6,76,29.98,10.0,Calm,Calm,-,N/A,,Clear,0,2013-10-08 12:34:00
7:53 AM,42.8,35.6,76,29.98,10.0,Calm,Calm,-,N/A,,Clear,0,2013-10-08 12:53:00
8:13 AM,44.6,37.4,76,29.98,10.0,Calm,Calm,-,N/A,,Clear,0,2013-10-08 13:13:00
8:34 AM,44.6,37.4,76,29.97,10.0,ESE,4.6,-,N/A,,Clear,110,2013-10-08 13:34:00
8:53 AM,46.4,39.2,76,29.97,10.0,Calm,Calm,-,N/A,,Clear,0,2013-10-08 13:53:00
9:14 AM,48.2,41.0,76,29.97,10.0,SSE,5.8,-,N/A,,Clear,150,2013-10-08 14:14:00
9:33 AM,50.0,39.2,66,29.96,10.0,SE,5.8,-,N/A,,Clear,130,2013-10-08 14:33:00
9:54 AM,51.8,39.2,62,29.96,10.0,SSE,9.2,-,N/A,,Clear,150,2013-10-08 14:54:00
10:14 AM,51.8,39.2,62,29.95,10.0,SSE,5.8,-,N/A,,Clear,160,2013-10-08 15:14:00
10:33 AM,51.8,39.2,62,29.94,10.0,South,10.4,-,N/A,,Clear,170,2013-10-08 15:33:00
10:54 AM,53.6,39.2,58,29.94,10.0,SSE,9.2,-,N/A,,Clear,150,2013-10-08 15:54:00
11:13 AM,53.6,39.2,58,29.94,10.0,SSE,6.9,16.1,N/A,,Clear,160,2013-10-08 16:13:00
11:34 AM,55.4,39.2,54,29.93,10.0,SSE,8.1,-,N/A,,Clear,160,2013-10-08 16:34:00
11:53 AM,55.4,39.2,54,29.93,10.0,SSE,9.2,-,N/A,,Clear,150,2013-10-08 16:53:00
12:13 PM,57.2,39.2,51,29.92,10.0,SSE,9.2,-,N/A,,Clear,160,2013-10-08 17:13:00
12:34 PM,55.4,39.2,54,29.92,10.0,SSE,9.2,17.3,N/A,,Clear,150,2013-10-08 17:34:00
12:53 PM,55.4,39.2,54,29.90,10.0,SSE,8.1,-,N/A,,Clear,150,2013-10-08 17:53:00
1:13 PM,55.4,39.2,54,29.89,10.0,SSE,8.1,-,N/A,,Clear,150,2013-10-08 18:13:00
1:34 PM,55.4,41.0,58,29.88,10.0,SSE,6.9,16.1,N/A,,Clear,160,2013-10-08 18:34:00
1:53 PM,57.2,41.0,55,29.87,10.0,SSE,11.5,18.4,N/A,,Clear,150,2013-10-08 18:53:00
2:14 PM,57.2,41.0,55,29.87,10.0,SE,10.4,-,N/A,,Clear,140,2013-10-08 19:14:00
2:34 PM,60.8,41.0,48,29.87,10.0,SSE,10.4,17.3,N/A,,Clear,150,2013-10-08 19:34:00
2:53 PM,60.8,41.0,48,29.86,10.0,SSE,8.1,-,N/A,,Clear,150,2013-10-08 19:53:00
3:14 PM,60.8,42.8,52,29.85,10.0,SE,10.4,16.1,N/A,,Clear,140,2013-10-08 20:14:00
3:33 PM,60.8,42.8,52,29.85,10.0,SSE,8.1,-,N/A,,Clear,150,2013-10-08 20:33:00
3:54 PM,62.6,42.8,48,29.85,10.0,SSE,9.2,-,N/A,,Clear,160,2013-10-08 20:54:00
4:14 PM,62.6,42.8,48,29.84,10.0,South,8.1,-,N/A,,Clear,170,2013-10-08 21:14:00
4:33 PM,62.6,41.0,45,29.84,10.0,SSE,9.2,16.1,N/A,,Clear,160,2013-10-08 21:33:00
4:54 PM,60.8,41.0,48,29.84,10.0,SSE,10.4,16.1,N/A,,Clear,160,2013-10-08 21:54:00
5:13 PM,60.8,41.0,48,29.83,10.0,South,9.2,18.4,N/A,,Clear,170,2013-10-08 22:13:00
5:33 PM,60.8,41.0,48,29.84,10.0,South,8.1,17.3,N/A,,Clear,170,2013-10-08 22:33:00
5:54 PM,60.8,41.0,48,29.84,10.0,SSE,8.1,-,N/A,,Clear,160,2013-10-08 22:54:00
6:13 PM,59.0,41.0,51,29.84,10.0,South,8.1,-,N/A,,Clear,170,2013-10-08 23:13:00
6:33 PM,59.0,41.0,51,29.84,10.0,South,9.2,-,N/A,,Clear,180,2013-10-08 23:33:00
6:54 PM,60.8,39.2,45,29.85,10.0,South,11.5,18.4,N/A,,Clear,180,2013-10-08 23:54:00
7:13 PM,60.8,39.2,45,29.85,10.0,South,10.4,20.7,N/A,,Clear,170,2013-10-09 00:13:00
7:33 PM,60.8,41.0,48,29.86,10.0,South,10.4,16.1,N/A,,Clear,170,2013-10-09 00:33:00
7:54 PM,60.8,41.0,48,29.86,10.0,South,9.2,20.7,N/A,,Clear,180,2013-10-09 00:54:00
8:13 PM,59.0,41.0,51,29.87,10.0,South,10.4,18.4,N/A,,Clear,180,2013-10-09 01:13:00
8:33 PM,59.0,41.0,51,29.87,10.0,South,12.7,17.3,N/A,,Clear,180,2013-10-09 01:33:00
8:54 PM,57.2,41.0,55,29.88,10.0,South,9.2,-,N/A,,Clear,180,2013-10-09 01:54:00
9:13 PM,57.2,41.0,55,29.88,10.0,South,8.1,-,N/A,,Clear,180,2013-10-09 02:13:00
9:34 PM,57.2,41.0,55,29.89,10.0,South,9.2,-,N/A,,Clear,180,2013-10-09 02:34:00
9:54 PM,57.2,41.0,55,29.89,10.0,South,9.2,-,N/A,,Clear,180,2013-10-09 02:54:00
10:13 PM,57.2,41.0,55,29.89,10.0,South,9.2,-,N/A,,Clear,180,2013-10-09 03:13:00
10:34 PM,57.2,41.0,55,29.89,10.0,South,8.1,-,N/A,,Clear,190,2013-10-09 03:34:00
10:54 PM,57.2,41.0,55,29.89,10.0,South,8.1,-,N/A,,Clear,190,2013-10-09 03:54:00
11:13 PM,57.2,41.0,55,29.89,10.0,South,11.5,16.1,N/A,,Clear,190,2013-10-09 04:13:00
11:34 PM,59.0,41.0,51,29.90,10.0,South,11.5,17.3,N/A,,Clear,190,2013-10-09 04:34:00
11:53 PM,59.0,41.0,51,29.90,10.0,South,10.4,18.4,N/A,,Clear,190,2013-10-09 04:53:00